Lid_Strength_Index
4 4 4 4 4 3 3 4 3 4 5 4 4 4 4 3 2 3 3 3 3 3 4 4 4 5 6 9 11 11 12 11 11 14 14 13 14 13 13 13 13 13 13
5 5 5 5 6 5 4 4 5 5 5 4 3 3 2 3 3 3 3 4 4 4 5 7 6 8 8 11 11 12 11 12 13 13 14 14 14 13 13 13 13 13 14
7 7 6 6 5 5 5 4 4 5 3 3 3 3 3 3 4 5 5 6 7 7 7 8 8 10 11 12 12 12 12 12 13 13 14 13 14 13 14 14 14 14 14
11 11 10 10 9 8 7 7 6 6 6 6 6 7 7 7 7 7 7 7 9 8 9 10 9 9 10 12 12 12 13 13 13 14 14 14 15 14 15 14 15 16 15
11 11 11 12 11 10 8 9 10 10 9 9 8 8 8 8 8 8 8 9 8 9 10 10 10 11 11 11 12 13 12 13 13 13 14 14 14 15 15 15 15 16 16
11 12 12 12 13 12 12 12 12 11 11 11 11 11 11 9 9 8 9 10 10 11 11 11 11 13 11 10 10 10 11 12 13 13 13 14 13 15 15 15 15 17 18
13 14 14 14 14 14 14 14 13 13 12 11 12 12 12 12 9 9 9 10 11 11 12 13 13 13 12 11 10 10 10 10 10 12 13 13 13 14 15 18 17 17 17
14 14 14 14 15 15 15 14 14 14 13 13 13 13 13 12 10 10 10 12 13 12 12 12 12 12 12 12 11 12 12 12 11 11 11 12 13 13 13 14 15 17 18
14 14 15 15 16 16 17 16 14 15 16 16 15 15 14 15 11 10 12 14 13 13 13 12 12 13 11 10 12 13 14 12 11 9 10 10 10 10 12 16 19 19 18
15 15 15 16 17 17 16 17 17 16 15 15 15 16 16 17 11 10 12 15 13 13 13 13 12 12 11 10 14 14 13 12 12 15 12 11 10 12 10 14 16 14 17
16 17 18 17 17 17 18 19 15 14 15 16 18 19 18 17 15 10 10 14 13 13 13 13 13 11 11 10 10 12 12 12 12 13 12 12 12 12 11 11 13 13 17
18 18 18 18 17 18 18 21 20 18 17 19 17 18 19 18 14 12 10 10 11 13 13 13 13 11 11 10 11 10 10 11 14 14 14 13 13 13 12 12 11 12 12
19 20 20 19 19 19 19 20 20 20 19 21 19 21 21 19 19 14 12 11 11 13 13 12 12 11 11 12 11 10 12 12 13 14 14 14 13 12 12 12 12 11 12
19 19 20 19 19 20 19 19 20 20 21 21 22 22 22 21 19 19 18 15 13 14 12 13 12 12 12 12 13 12 13 12 13 13 13 13 13 14 14 13 13 13 13
19 19 19 19 18 19 19 19 19 21 20 23 24 24 23 22 19 13 16 19 17 13 13 13 14 14 15 14 14 14 13 13 13 12 12 13 13 13 13 12 12 12 14
19 19 19 19 19 18 17 15 13 13 12 13 13 17 21 13 12 12 12 12 12 12 18 15 15 15 15 15 15 15 14 14 17 16 15 13 13 13 13 12 12 13 13
19 20 20 20 19 20 21 19 19 16 13 14 14 13 13 13 12 12 12 12 12 14 19 16 15 15 15 15 15 16 17 18 19 15 13 13 13 13 13 12 12 12 13
21 21 20 21 21 22 23 24 23 22 25 26 20 17 14 14 14 14 13 16 22 20 22 18 17 18 17 17 18 17 16 15 15 14 13 13 12 13 13 13 13 13 12
21 22 22 23 23 23 24 25 26 26 28 30 29 22 25 17 18 18 19 25 22 26 27 26 27 25 25 25 25 24 23 21 19 17 14 13 12 13 13 13 14 13 12
24 24 23 24 25 25 25 25 27 28 29 30 31 30 31 29 32 34 33 34 33 34 33 33 32 31 29 29 28 27 25 24 23 21 18 17 17 16 15 15 14 13 14
25 26 26 27 27 28 29 28 29 29 31 33 32 30 23 33 36 36 36 36 36 36 35 35 34 34 33 32 31 31 30 28 28 27 26 22 21 20 18 17 15 15 14
27 28 28 28 28 28 30 30 29 30 32 32 31 28 24 34 35 35 36 37 37 38 37 36 36 35 34 33 33 32 32 32 31 31 30 29 25 22 20 18 16 15 16
26 27 27 29 29 29 29 29 29 30 31 33 32 30 33 32 34 35 35 36 36 35 37 37 36 35 35 35 35 34 33 31 30 31 27 26 26 26 23 19 17 16 16
25 26 27 28 27 28 27 28 29 30 31 32 33 33 32 34 35 33 35 36 36 37 37 36 35 35 35 34 35 36 35 32 32 29 27 24 22 23 22 20 19 16 16
27 27 27 27 27 27 28 28 28 29 31 30 31 31 33 33 33 36 35 35 34 33 32 32 34 33 33 33 31 31 30 27 26 25 26 22 22 21 21 21 21 21 20
27 27 27 27 28 28 28 28 28 28 30 31 32 33 33 32 32 33 33 34 33 31 32 31 31 31 30 30 30 28 25 20 21 20 19 22 22 23 24 22 23 22 21